Baker Lake, Nunavut

12:14 PM CDT on March 23, 2017 (GMT -0500)
Baker Lake

Weather History for CYBK - October, 2012

Change the Weather History Date:

Wednesday, October 17, 2012

  Actual Average Record
Temperature  
Mean Temperature 16 °F -  
Max Temperature 24 °F 12 °F 33 °F (2005)
Min Temperature 9 °F -1 °F 1 °F (2004)
Degree Days  
Heating Degree Days 48    
Moisture  
Dew Point 15 °F    
Average Humidity 88    
Maximum Humidity 93    
Minimum Humidity 81    
Precipitation  
Precipitation 0.00 in 0.03 in - ()
Sea Level Pressure  
Sea Level Pressure 29.93 in    
Wind  
Wind Speed 7 mph ()    
Max Wind Speed 12 mph    
Max Gust Speed -    
Visibility 16.9 miles    
Events Rain    
Averages and records for this station are not official NWS values.
T = Trace of Precipitation, MM = Missing Value Source: Averaged Metar Reports

Daily Weather History Graph

Daily Weather History Graph

Search for Another Location

Airport or City:

Trip Planner

Search our weather history database for the weather conditions in past years. The results will help you decide how hot, cold, wet, or windy it might be!

Date:

Astronomy

Oct. 17, 2012 Rise Set
Actual Time 8:22 AM CDT 5:54 PM CDT
Civil Twilight 7:33 AM CDT 6:44 PM CDT
Nautical Twilight 6:37 AM CDT 7:39 PM CDT
Astronomical Twilight 5:41 AM CDT 8:35 PM CDT
Moon 12:17 PM CDT (10/17) 6:09 PM CDT (10/17)
Length of Visible Light 11h 10m
Length of Day
9h 31m
Waxing Crescent, 7% of the Moon is Illuminated
Oct 17
Waxing Crescent
Oct 21
First Quarter
Oct 29
Full
Nov 6
Last Quarter
Nov 13
New

Hourly Weather History & Observations

Time (CDT) Temp. Windchill Dew Point Humidity Pressure Visibility Wind Dir Wind Speed Gust Speed Precip Events Conditions
12:00 AM 14.0 °F 3.9 °F 10.4 °F 86% 29.80 in 15.0 mi North 6.9 mph - N/A   Clear
1:00 AM 13 °F - 11 °F 85% 29.82 in 15 mi NNE 11.5 mph - -  
1:00 AM 14.0 °F 2.0 °F 10.4 °F 86% 29.82 in 15.0 mi North 9.2 mph - N/A   Clear
2:00 AM 12.2 °F 1.7 °F 10.4 °F 92% 29.83 in 15.0 mi North 6.9 mph - N/A   Clear
3:00 AM 14.0 °F 0.5 °F 10.4 °F 86% 29.84 in 15.0 mi North 11.5 mph - N/A   Clear
4:00 AM 12.2 °F 2.9 °F 8.6 °F 85% 29.86 in 15.0 mi NNW 5.8 mph - N/A   Clear
5:00 AM 14.0 °F 2.0 °F 10.4 °F 86% 29.86 in 15.0 mi North 9.2 mph - N/A   Clear
6:00 AM 12.2 °F -1.8 °F 8.6 °F 85% 29.88 in 15.0 mi NNW 11.5 mph - N/A   Clear
7:00 AM 13 °F - 11 °F 86% 29.89 in 15 mi NNW 9.2 mph - -   Scattered Clouds
7:00 AM 12.2 °F -1.0 °F 10.4 °F 92% 29.89 in 15.0 mi NNW 10.4 mph - N/A   Partly Cloudy
8:00 AM 14.0 °F 1.2 °F 12.2 °F 93% 29.90 in 20.0 mi North 10.4 mph - N/A   Partly Cloudy
9:00 AM 14.0 °F 6.5 °F 12.2 °F 93% 29.91 in 20.0 mi North 4.6 mph - N/A   Partly Cloudy
10:00 AM 15.8 °F 8.6 °F 14.0 °F 93% 29.91 in 20.0 mi NW 4.6 mph - N/A   Partly Cloudy
11:00 AM 17.6 °F - 14.0 °F 86% 29.93 in 20.0 mi Calm Calm - N/A   Partly Cloudy
12:00 PM 17.6 °F 10.7 °F 14.0 °F 86% 29.94 in 20.0 mi NNW 4.6 mph - N/A   Partly Cloudy
1:00 PM 20 °F - 17 °F 81% 29.94 in 19 mi North 4.6 mph - -   Mostly Cloudy
1:00 PM 19.4 °F 12.8 °F 17.6 °F 93% 29.94 in 20.0 mi North 4.6 mph - N/A   Mostly Cloudy
2:00 PM 21.2 °F 12.6 °F 17.6 °F 86% 29.95 in 20.0 mi NNW 6.9 mph - N/A   Mostly Cloudy
4:00 PM 23.0 °F 13.9 °F 19.4 °F 86% 29.97 in 20.0 mi NW 8.1 mph - N/A   Mostly Cloudy
5:00 PM 24.8 °F 14.0 °F 21.2 °F 86% 29.99 in 20.0 mi NNW 11.5 mph - N/A   Mostly Cloudy
6:00 PM 24.8 °F 15.3 °F 21.2 °F 86% 30.00 in 20.0 mi NNW 9.2 mph - N/A   Mostly Cloudy
7:00 PM 24 °F - 21 °F 82% 30.02 in 15 mi NW 6.9 mph - -   Overcast
7:00 PM 23.0 °F 14.7 °F 21.2 °F 93% 30.02 in 15.0 mi NW 6.9 mph - N/A   Overcast
7:55 PM - - - N/A% - 15.0 mi NNW 6.9 mph - N/A Rain Light Freezing Rain
8:00 PM 24.8 °F 14.6 °F 23.0 °F 93% 30.04 in 15.0 mi NNW 10.4 mph - N/A Rain Light Freezing Rain
8:32 PM - - - N/A% - 15.0 mi NNW 6.9 mph - N/A   Mostly Cloudy
9:00 PM 24.8 °F 16.1 °F 21.2 °F 86% 30.04 in 15.0 mi NNW 8.1 mph - N/A   Mostly Cloudy
10:00 PM 23.0 °F 12.4 °F 21.2 °F 93% 30.04 in 15.0 mi NNW 10.4 mph - N/A   Mostly Cloudy
11:00 PM 21.2 °F 9.5 °F 19.4 °F 93% 30.05 in 15.0 mi NW 11.5 mph - N/A   Mostly Cloudy